Home   Weather   Pond Inlet   Past weeks

Flag for Canada Past Weather in Pond Inlet, Nunavut, Canada — Yesterday and Last 2 Weeks

Now
-2 °F

Light snow. Mostly cloudy.


Feels Like: -16 °F
Forecast: -8 / -5 °F
Wind: 7 mph from South

Location: Pond Inlet

Current Time: Jan 22, 2017 at 1:39:38 pm

Latest Report: Jan 22, 2017 at 12:56 pm


Visibility: 5 mi

Pressure: 29.81 "Hg

Humidity: 84%

Dew Point: -6 °F

Location of Pond InletLocation

Past Weather in Pond Inlet — Graph

°F

Pond Inlet Temperature Yesterday

Maximum temperature yesterday: -13 °F (at 7:00 pm)
Minimum temperature yesterday: -26 °F (at 2:00 am)
Average temperature yesterday: -20 °F

High & Low Weather Summary for the Past Weeks

 TemperatureHumidityPressure
High-2 °F (Jan 12, 2:00 pm)84% (Jan 12, 10:28 am)30.22 "Hg (Jan 12, 10:28 am)
Low-31 °F (Jan 15, 10:00 am)58% (Jan 18, 8:00 am)29.25 "Hg (Jan 18, 12:00 am)
Average-20 °F73%29.78 "Hg
* Reported Jan 7 12:00 pm — Jan 22 12:00 pm, Pond Inlet, Weather by CustomWeather, © 2017

Note: Actual official high and low records may vary slightly from our data, if they occured in-between our weather recording intervals... More about our weather records

Advertising

Pond Inlet Weather History for the Previous 24 Hours

Scroll right to see more
 ConditionsComfort  
Time TempWeatherWind HumidityBarometerVisibility
12:00 pm
Sun, Jan 22
-2 °FLight snow. More clouds than sun.8 mph84%29.83 "Hg8 mi
11:00 am-2 °FLight snow. Overcast.9 mph84%29.84 "Hg9 mi
10:00 am-2 °FLight snow. Overcast.9 mph84%29.86 "Hg9 mi
9:26 am-2 °FLight snow. More clouds than sun.9 mph84%29.87 "Hg6 mi
8:53 am-2 °FLight snow. Overcast.10 mph77%29.88 "Hg6 mi
8:00 am-4 °FLight snow. Mostly cloudy.13 mph84%29.90 "Hg6 mi
7:56 am-4 °FLight snow. Overcast.13 mph84%29.90 "Hg6 mi
7:19 am-4 °FLight snow. Overcast.12 mph77%29.92 "Hg3 mi
7:00 am-4 °FLight snow. Mostly cloudy.13 mph77%29.92 "Hg2 mi
6:00 am-4 °FLight snow. Overcast.13 mph77%29.93 "Hg9 mi
5:36 am-6 °FLight snow. Mostly cloudy.12 mph84%29.93 "Hg6 mi
4:55 am-6 °FLight snow. Overcast.14 mph77%29.95 "Hg5 mi
4:00 am-6 °FLight snow. Mostly cloudy.12 mph77%29.97 "Hg9 mi
3:32 am-8 °FLight snow. Overcast.12 mph84%29.98 "Hg6 mi
3:00 am-8 °FLight snow. Overcast.10 mph77%29.98 "Hg3 mi
2:27 am-8 °FLight snow. Overcast.12 mph77%30.01 "Hg3 mi
2:00 am-8 °FLight snow. Overcast.12 mph77%30.01 "Hg2 mi
1:42 am-9 °FLight snow. Overcast.10 mph84%30.01 "Hg3 mi
1:00 am-9 °FLight snow. Overcast.10 mph77%30.03 "Hg4 mi
12:28 am-8 °FLight snow. Overcast.9 mph70%30.03 "Hg3 mi
12:03 am-9 °FLight snow. Overcast.8 mph70%30.04 "Hg5 mi
11:00 pm
Sat, Jan 21
-13 °FOvercast.7 mph69%30.05 "Hg9 mi
10:00 pm-15 °FOvercast.8 mph69%30.06 "Hg9 mi
9:00 pm-18 °FPassing clouds.6 mph75%30.09 "Hg9 mi
8:00 pm-13 °FPassing clouds.7 mph63%30.11 "Hg9 mi
7:00 pm-13 °FPassing clouds.9 mph69%30.12 "Hg9 mi
6:00 pm-17 °FPartly sunny.10 mph69%30.15 "Hg9 mi
5:00 pm-18 °FPassing clouds.6 mph69%30.14 "Hg15 mi
4:00 pm-20 °FPassing clouds.6 mph62%30.15 "Hg15 mi
3:00 pm-18 °FScattered clouds.7 mph69%30.15 "Hg15 mi
2:00 pm-20 °FScattered clouds.8 mph68%30.15 "Hg15 mi
1:00 pm-20 °FOvercast.9 mph68%30.16 "Hg9 mi
Weather by CustomWeather, © 2017

See weather overviewHow to use our weather pages